Flag for Germany Weather past 2 weeks in Zerbst/Anhalt, Saxony-Anhalt, Germany

Now
63 °F

Overcast.


Feels Like: 63 °F
Forecast: 54 / 67 °F
Wind: 2 mph from North

Location: Magdeburg

Current Time: Aug 31, 2014 at 12:31:32 PM

Latest Report: Aug 31, 2014 at 12:00 PM


Visibility: 25 mi

Pressure: 29.92 "Hg

Humidity: 75%

Dew point: 54 °F

Location of Zerbst/AnhaltLocation

Historic Weather in Zerbst/Anhalt — Graph

°F

Zerbst/Anhalt temperature yesterday

Maximum temperature yesterday: 69 °F (at 6:00 PM)
Minimum temperature yesterday: 58 °F (at 4:00 AM)
Average temperature yesterday: 63 °F

Past Weeks' High & Low Weather Summary

 TemperatureHumidityPressure
High75 °F (Aug 28, 6:00 PM)97% (Aug 26, 4:00 AM)30.08 "Hg (Aug 26, 4:00 AM)
Low45 °F (Aug 25, 7:00 AM)31% (Aug 28, 4:00 PM)29.62 "Hg (Aug 18, 3:00 PM)
Average59 °F71%29.92 "Hg
* Reported Aug 16 12:00 Noon — Aug 31 11:00 AM, Zerbst/Anhalt, Weather by CustomWeather, © 2014

Note: Actual official high and low records may vary slightly from our data, if they occured in-between our weather recording intervals... More about our weather records

Advertising

Zerbst/Anhalt weather history for previous 24 hours

 ConditionsComfort  
Time TempWeatherWind HumidityBarometerVisibility
11:00 AM
Aug 31
61 °FOvercast.1 mph79%29.93 "Hg12 mi
10:00 AM58 °FOvercast.1 mph89%29.93 "Hg9 mi
9:00 AM58 °FOvercast.1 mph91%29.93 "Hg7 mi
8:00 AM58 °FOvercast.1 mph91%29.93 "Hg9 mi
7:00 AM59 °FLow clouds.1 mph94%29.93 "Hg9 mi
6:00 AM60 °FOvercast.2 mph93%29.93 "Hg12 mi
5:00 AM60 °FOvercast.2 mph96%29.93 "Hg11 mi
4:00 AM60 °FRain. Dense fog.1 mph93%29.93 "Hg2 mi
3:00 AM61 °FOvercast.2 mph84%29.95 "Hg19 mi
2:00 AM61 °FOvercast.2 mph84%29.96 "Hg25 mi
1:00 AM61 °FOvercast.2 mph85%29.97 "Hg13 mi
12:00 AM62 °FOvercast.1 mph84%29.97 "Hg18 mi
10:00 PM
Aug 30
63 °FOvercast.1 mph83%29.98 "Hg22 mi
9:00 PM64 °FOvercast.1 mph79%29.99 "Hg28 mi
8:00 PM66 °FOvercast.2 mph70%29.98 "Hg28 mi
7:00 PM67 °FOvercast.5 mph65%29.98 "Hg37 mi
6:00 PM69 °FOvercast.3 mph62%29.99 "Hg34 mi
4:00 PM68 °FOvercast.2 mph68%30.00 "Hg31 mi
3:00 PM68 °FOvercast.5 mph68%30.01 "Hg28 mi
2:00 PM66 °FOvercast.2 mph73%30.02 "Hg28 mi
1:00 PM67 °FOvercast.5 mph65%30.02 "Hg28 mi
12:00 PM67 °FOvercast.3 mph67%30.03 "Hg28 mi
Weather by CustomWeather, © 2014

See weather overviewHow to use our weather pages